Regional Weather Roundup
Issued by NWS

Home | Current Version | Previous Version | Graphics & Text | Print | Product List | Glossary On
Versions: 1 2 3 4 5 6 7 8 9 10 11 12 13 14 15 16 17 18 19 20 21 22 23 24 25 26 27 28 29 30 31 32 33 34 35 36 37 38 39 40 41 42 43 44 45 46 47 48 49 50
000
ASUS43 KMKX 012021
RWRWI

WISCONSIN REGIONAL WEATHER ROUNDUP
NATIONAL WEATHER SERVICE MILWAUKEE/SULLIVAN WI
300 PM CDT WED JUL 01 2015

NOTE: "FAIR" INDICATES FEW OR NO CLOUDS BELOW 12,000 FEET WITH NO
SIGNIFICANT WEATHER AND/OR OBSTRUCTIONS TO VISIBILITY.

WIZ001-002-006>008-014>016-023>028-012100-
NORTHWEST WISCONSIN

CITY           SKY/WX    TMP DP  RH WIND       PRES   REMARKS
SUPERIOR ARPT  MOSUNNY   72  58  62 S5        30.00S
ASHLAND        SUNNY     71  51  49 NE9       30.02S
HAYWARD        MOSUNNY   72  47  40 N5        30.01F
SIREN          MOSUNNY   73  47  39 NE3       30.01S
CUMBERLAND     SUNNY     68  45  42 NE3       30.01F
RICE LAKE      SUNNY     71  48  43 N8        30.02F
CHETEK         SUNNY     71  51  49 CALM      30.01F
LADYSMITH      SUNNY     71  48  44 N6        30.03S
EAU CLAIRE     MOSUNNY   70  49  47 E8        30.00F
MENOMONIE      MOSUNNY   71  49  45 E6        30.01S
NEW RICHMOND   SUNNY     70  48  45 NE5       30.01F
OSCEOLA        SUNNY     73  50  44 NE5       30.03S
$$

WIZ003>005-009-010-017-018-012100-
NORTH CENTRAL WISCONSIN

CITY           SKY/WX    TMP DP  RH WIND       PRES   REMARKS
MANITOWISH WTR SUNNY     67  44  43 CALM      30.02S
ARBOR VITAE    SUNNY     68  43  41 NE7       30.02S
WOODRUFF       SUNNY     68  43  41 NE7       30.02S
RHINELANDER    MOSUNNY   68  42  38 N7        30.02S
EAGLE RIVER    SUNNY     66  45  45 NE9       30.02R
LAND O LAKES   SUNNY     66  39  36 NE6       30.03S
PHILLIPS       SUNNY     68  47  46 N3        30.01S
TOMAHAWK       MOSUNNY   68  45  43 NE3       30.02S
MEDFORD        MOSUNNY   69  46  43 N3        30.01S
MERRILL        MOSUNNY   68  46  45 N5        30.01S
$$

WIZ029-030-035-036-043>047-012100-
CENTRAL WISCONSIN

CITY           SKY/WX    TMP DP  RH WIND       PRES   REMARKS
WAUSAU         MOSUNNY   71  43  36 MISG      29.99S
MOSINEE        SUNNY     70  45  40 N3        30.01S
MARSHFIELD     PTSUNNY   68  45  43 MISG      30.00F
STEVENS POINT  PTSUNNY   67  43  42 N7        30.00F
WAUPACA        PTSUNNY   71  43  36 CALM      29.99F
WAUTOMA        PTSUNNY   70  45  40 NE7       29.99S
WISC RAPIDS    PTSUNNY   69  41  36 N8        30.01S
CAMP DOUGLAS   PTSUNNY   72  52  49 NE7       29.98F
$$

WIZ011>013-019>022-031-037>040-048>050-012100-
NORTHEAST WISCONSIN

CITY           SKY/WX    TMP DP  RH WIND       PRES   REMARKS
ANTIGO         MOSUNNY   67  45  45 N6        30.01S
SHAWANO        PTSUNNY   70  44  38 CALM      29.99S
OCONTO         PTSUNNY   68  48  49 N7        29.98S
STURGEON BAY   MOSUNNY   63  50  63 N6        30.01F
GREEN BAY      PTSUNNY   65  54  67 E5        30.00S
MANITOWOC      CLOUDY    60  52  74 MISG      30.01R
APPLETON       MOSUNNY   66  50  55 N7        30.00S
CLINTONVILLE   PTSUNNY   70  41  35 N6        29.99S
OSHKOSH        PTSUNNY   65  52  62 NE7       29.98F
$$

WIZ032>034-041-042-053>061-012100-
SOUTHWEST WISCONSIN

CITY           SKY/WX    TMP DP  RH WIND       PRES   REMARKS
LA CROSSE      CLOUDY    69  47  45 VRB6      29.99S
SPARTA         PTSUNNY   70  44  38 NE6       29.99F
VIROQUA        CLOUDY    65  47  52 NE5       30.00S
BOSCOBEL       CLOUDY    68  48  48 CALM      29.99R
PRAIRIE DU CHI PTSUNNY   66  49  53 N6        29.98F
PLATTEVILLE    PTSUNNY   69  46  43 NE9       29.98R
$$

WIZ056-057-062-063-064-067-068-012100-
SOUTH CENTRAL WISCONSIN

CITY           SKY/WX    TMP DP  RH WIND       PRES   REMARKS
REEDSBURG      CLOUDY    67  47  49 N6        29.98S
BARABOO/DELLS  CLOUDY    66  42  41 NE3       29.98S
LONE ROCK      CLOUDY    69  49  48 N5        29.99S
MINERAL POINT  CLOUDY    68  45  42 N7        29.99R
MADISON        CLOUDY    70  49  47 NE9       29.97F
MIDDLETON      CLOUDY    70  44  39 N5        29.98S
WATERTOWN      CLOUDY    68  54  61 N7        29.96F
MONROE         PTSUNNY   66  52  59 NE12      29.96F
JANESVILLE     MOSUNNY   70  48  46 N7        29.96
$$

WIZ051-052-058>065-066-070>072-012100-
SOUTHEAST WISCONSIN

CITY           SKY/WX    TMP DP  RH WIND       PRES   REMARKS
MILWAUKEE      CLOUDY    57  50  77 E9        29.99S
WAUKESHA       MOSUNNY   63  52  67 E8        29.98S
MILWAUKEE/TIMM SUNNY     63  48  59 E7        29.99F
RACINE         PTSUNNY   61  50  67 E9        30.00S
BURLINGTON     PTSUNNY   66  49  54 N6        29.97S
KENOSHA        PTSUNNY   60  50  69 E12       29.99R
FOND DU LAC    PTSUNNY   66  53  63 NE12      29.99S
SHEBOYGAN      PTSUNNY   62  54  74 NE10      29.99S
WEST BEND      PTSUNNY   63  52  67 SE5       29.98S
JUNEAU         CLOUDY    66  53  62 N7        29.98F
$$

LSZ147-162-012100-
LAKE SUPERIOR

STATION/POSITION TIME  TEMP    WIND        PRES    WAVE
                       AIR SEA DIR/SP/G            HT/PER
                 (UTC) (F)     (DEG/KT/KT) (MB)    (FT/S)
W MID LAKE BUOY  1950   47 39  190/  6/  6 1017.4F   1
DEVILS ISLAND    2000   61     100/  5/  7 1016.7F
PORT WING        1800   61      40/  6/  7 1016.9
SAXON HARBOR     1940   62        CALM     1016.9F
$$

LMZ867-665-643>646-012100-
LAKE MICHIGAN

STATION/POSITION TIME  TEMP    WIND        PRES    WAVE
                       AIR SEA DIR/SP/G            HT/PER
                 (UTC) (F)     (DEG/KT/KT) (MB)    (FT/S)
CHAMBERS ISLAND  1900   60     120/  2/  6 1015.9S
S GREEN BAY BUOY 1800   56 68  250/  6/  8 1017.5
N MID LAKE BUOY  1950   50 44  230/  4/  6 1015.9R   1/ 4
NORTHPORT PIER   1900   60     350/  8/  9 1015.6S
SISTER BAY       1944   68     350/ 14/ 18   N/A
ALGOMA LAKESHORE 1925             CALM       N/A
KEWAUNEE LAKESHO 2000   57     140/  2/  5 1015.3R
SHEBOYGAN LAKESH 2000   52      60/ 11/ 12 1016.3F
PORT WASHINGTON  1900   56      90/  5/  7 1016.6F
ATWATER BUOY     2000   54      60/  8/ 10 1016.9R
MILWAUKEE LAKESH 2000   54      50/  7/  8   N/A
KENOSHA   LAKESH 2000   57     100/  6/  8 1015.6R
$$

TC  - TEMPERATURE IN CELSIUS
VSB - VISIBILITY IN STATUTE MILES
WCI - WIND CHILL INDEX
HX  - HEAT INDEX




USA.gov is the U.S. government's official web portal to all federal, state and local government web resources and services.